| time (UTC) | temp F | wind direction | speed knots | gust knots | rain 1hr in | rain 24hr in | rain mn in | humidity % | barometer mb |
| 20260502170214 | 53 | 245 | 0.9 | 1.7 | 0.06 | 0.38 | 0.38 | 97 | 1002.9 |
| 20260502163603 | 53 | 284 | 2.6 | 3.5 | 0.07 | 0.37 | 0.37 | 96 | 1003.2 |
| 20260502162703 | 53 | 30 | 1.7 | 3.5 | 0.05 | 0.34 | 0.34 | 96 | 1003.4 |
| 20260502161803 | 53 | 219 | 1.7 | 2.6 | 0.06 | 0.34 | 0.34 | 96 | 1003.4 |
| 20260502160903 | 53 | 213 | 0.9 | 1.7 | 0.05 | 0.32 | 0.32 | 96 | 1003.5 |
| 20260502151114 | 54 | 74 | 0.9 | 1.7 | 0.12 | 0.27 | 0.27 | 94 | 1003.6 |
| 20260502130214 | 55 | 197 | 1.7 | 2.6 | 0.01 | 0.01 | 0.01 | 76 | 1005.3 |
| 20260502123603 | 57 | 198 | 5.2 | 7.0 | 0.00 | 0.00 | 0.00 | 71 | 1005.9 |
| 20260502122914 | 58 | 214 | 4.3 | 7.0 | 0.00 | 0.00 | 0.00 | 72 | 1005.8 |
| 20260502121803 | 59 | 195 | 5.2 | 7.0 | 0.00 | 0.00 | 0.00 | 71 | 1005.9 |
| 20260502120903 | 60 | 188 | 2.6 | 4.3 | 0.00 | 0.00 | 0.00 | 71 | 1006.0 |
| 20260502115403 | 60 | 194 | 2.6 | 3.5 | 0.00 | 0.00 | 0.00 | 71 | 1006.2 |
| 20260502114503 | 60 | 209 | 3.5 | 4.3 | 0.00 | 0.00 | 0.00 | 70 | 1006.2 |
| 20260502113603 | 61 | 142 | 2.6 | 3.5 | 0.00 | 0.00 | 0.00 | 68 | 1006.5 |
| 20260502112703 | 62 | 125 | 2.6 | 3.5 | 0.00 | 0.00 | 0.00 | 66 | 1006.3 |
| 20260502111803 | 62 | 171 | 2.6 | 3.5 | 0.00 | 0.00 | 0.00 | 65 | 1006.6 |
| 20260502110903 | 62 | 242 | 2.6 | 4.3 | 0.00 | 0.00 | 0.00 | 64 | 1006.7 |
| 20260502110003 | 64 | 106 | 2.6 | 4.3 | 0.00 | 0.00 | 0.00 | 58 | 1006.9 |
| 20260502105403 | 64 | 66 | 1.7 | 3.5 | 0.00 | 0.00 | 0.00 | 57 | 1006.8 |
| 20260502104503 | 64 | 19 | 1.7 | 2.6 | 0.00 | 0.00 | 0.00 | 60 | 1006.9 |
| 20260502103603 | 63 | 248 | 2.6 | 3.5 | 0.00 | 0.00 | 0.00 | 63 | 1006.7 |
| 20260502102703 | 64 | 55 | 1.7 | 3.5 | 0.00 | 0.00 | 0.00 | 58 | 1007.1 |
| 20260502101803 | 63 | 146 | 1.7 | 2.6 | 0.00 | 0.00 | 0.00 | 61 | 1007.3 |
| 20260502100903 | 62 | 212 | 2.6 | 4.3 | 0.00 | 0.00 | 0.00 | 61 | 1007.6 |
| 20260502090903 | 62 | 182 | 1.7 | 2.6 | 0.00 | 0.00 | 0.00 | 65 | 1007.8 |
| 20260502071113 | 54 | 225 | 0.9 | 1.7 | 0.00 | 0.00 | 0.00 | 88 | 1008.7 |
| 20260502070003 | 54 | 225 | 0.0 | 0.9 | 0.00 | 0.00 | 0.00 | 90 | 1008.6 |
| 20260502065403 | 54 | 225 | 0.9 | 1.7 | 0.00 | 0.00 | 0.00 | 91 | 1008.6 |
| 20260502064503 | 55 | 169 | 0.9 | 1.7 | 0.00 | 0.00 | 0.00 | 92 | 1008.5 |
| 20260502063603 | 57 | 227 | 0.9 | 1.7 | 0.00 | 0.00 | 0.00 | 100 | 1008.6 |
| 20260502062703 | 55 | 170 | 0.9 | 1.7 | 0.00 | 0.00 | 0.00 | 100 | 1008.7 |
| 20260502061803 | 51 | 142 | 0.9 | 1.7 | 0.00 | 0.00 | 0.00 | 100 | 1008.6 |
| 20260502061112 | 49 | 131 | 0.9 | 1.7 | 0.00 | 0.00 | 0.00 | 100 | 1008.7 |
| 20260502060003 | 48 | 161 | 1.7 | 2.6 | 0.00 | 0.00 | 0.00 | 100 | 1008.6 |
| 20260502055403 | 47 | 177 | 1.7 | 2.6 | 0.00 | 0.00 | 0.00 | 100 | 1008.8 |
| 20260502054503 | 47 | 177 | 1.7 | 2.6 | 0.00 | 0.00 | 0.00 | 100 | 1009.1 |
| 20260502053603 | 47 | 188 | 2.6 | 3.5 | 0.00 | 0.00 | 0.00 | 100 | 1009.1 |
| 20260502052703 | 48 | 191 | 1.7 | 1.7 | 0.00 | 0.00 | 0.00 | 100 | 1009.1 |
| 20260502051803 | 48 | 192 | 0.9 | 1.7 | 0.00 | 0.00 | 0.00 | 100 | 1009.0 |
| 20260502050903 | 48 | 185 | 1.7 | 2.6 | 0.00 | 0.00 | 0.00 | 100 | 1009.0 |
| 20260502050004 | 47 | 189 | 1.7 | 2.6 | 0.00 | 0.00 | 0.00 | 100 | 1009.1 |
| 20260502045403 | 47 | 171 | 2.6 | 2.6 | 0.00 | 0.00 | 0.00 | 100 | 1009.0 |
| 20260502044504 | 47 | 179 | 2.6 | 3.5 | 0.00 | 0.00 | 0.00 | 97 | 1008.8 |
| 20260502043603 | 47 | 187 | 3.5 | 3.5 | 0.00 | 0.00 | 0.00 | 97 | 1009.0 |
| 20260502042703 | 48 | 188 | 1.7 | 2.6 | 0.00 | 0.00 | 0.00 | 100 | 1008.9 |
| 20260502041803 | 48 | 164 | 1.7 | 2.6 | 0.00 | 0.00 | 0.00 | 100 | 1008.9 |
| 20260502040903 | 48 | 90 | 0.9 | 1.7 | 0.00 | 0.00 | 0.00 | 97 | 1008.8 |
| 20260502040004 | 47 | 90 | 0.9 | 1.7 | 0.00 | 0.00 | 0.00 | 97 | 1008.8 |
| 20260502035403 | 47 | 90 | 0.0 | 0.9 | 0.00 | 0.00 | 0.00 | 97 | 1009.0 |
| 20260502034503 | 47 | 0 | 0.0 | 0.0 | 0.00 | 0.00 | 0.00 | 97 | 1008.9 |
| 20260502033603 | 47 | 0 | 0.0 | 0.0 | 0.00 | 0.00 | 0.00 | 97 | 1009.0 |
| 20260502032703 | 47 | 118 | 0.9 | 1.7 | 0.00 | 0.00 | 0.00 | 97 | 1009.3 |
| 20260502031803 | 47 | 180 | 0.9 | 1.7 | 0.00 | 0.00 | 0.00 | 97 | 1009.3 |
| 20260502030903 | 47 | 165 | 0.0 | 0.9 | 0.00 | 0.00 | 0.00 | 97 | 1009.6 |
| 20260502030003 | 47 | 180 | 0.9 | 1.7 | 0.00 | 0.00 | 0.00 | 97 | 1009.4 |
| 20260502025403 | 47 | 180 | 0.9 | 1.7 | 0.00 | 0.00 | 0.00 | 97 | 1009.6 |
| 20260502024713 | 47 | 193 | 0.9 | 1.7 | 0.00 | 0.00 | 0.00 | 97 | 1009.7 |
| 20260502023603 | 47 | 71 | 0.9 | 1.7 | 0.00 | 0.00 | 0.00 | 97 | 1009.8 |
| 20260502022703 | 47 | 193 | 0.9 | 1.7 | 0.00 | 0.00 | 0.00 | 97 | 1009.8 |
| 20260502021803 | 48 | 175 | 0.9 | 1.7 | 0.00 | 0.00 | 0.00 | 97 | 1010.0 |
| 20260502020903 | 48 | 211 | 1.7 | 3.5 | 0.00 | 0.00 | 0.00 | 97 | 1010.1 |
| 20260502020003 | 48 | 194 | 1.7 | 2.6 | 0.00 | 0.00 | 0.00 | 97 | 1010.1 |
| 20260502015403 | 49 | 196 | 0.9 | 2.6 | 0.00 | 0.00 | 0.00 | 97 | 1010.1 |
| 20260502014503 | 49 | 221 | 0.0 | 0.9 | 0.00 | 0.00 | 0.00 | 97 | 1010.3 |
| 20260502013603 | 48 | 186 | 0.9 | 1.7 | 0.00 | 0.00 | 0.00 | 97 | 1010.0 |
| 20260502012703 | 48 | 188 | 0.9 | 1.7 | 0.00 | 0.00 | 0.00 | 96 | 1010.5 |
| 20260502011803 | 48 | 202 | 0.0 | 1.7 | 0.00 | 0.00 | 0.00 | 96 | 1010.4 |
| 20260502010903 | 49 | 181 | 1.7 | 2.6 | 0.00 | 0.00 | 0.00 | 96 | 1010.5 |
| 20260502010003 | 49 | 188 | 2.6 | 3.5 | 0.00 | 0.00 | 0.00 | 96 | 1010.5 |
| 20260502005403 | 49 | 189 | 1.7 | 3.5 | 0.00 | 0.00 | 0.00 | 95 | 1010.6 |
| 20260502004503 | 49 | 344 | 0.9 | 1.7 | 0.00 | 0.00 | 0.00 | 95 | 1010.9 |
| 20260502003603 | 49 | 182 | 1.7 | 3.5 | 0.00 | 0.00 | 0.00 | 95 | 1010.9 |
| 20260502002703 | 49 | 190 | 2.6 | 3.5 | 0.00 | 0.00 | 0.00 | 94 | 1010.9 |
| 20260502001803 | 50 | 185 | 1.7 | 2.6 | 0.00 | 0.00 | 0.00 | 94 | 1010.8 |
| 20260502000903 | 50 | 179 | 1.7 | 1.7 | 0.00 | 0.00 | 0.00 | 93 | 1011.0 |
| 20260502000003 | 50 | 180 | 0.9 | 1.7 | 0.00 | 0.00 | 0.00 | 92 | 1011.0 |
| 20260501235403 | 50 | 180 | 0.0 | 1.7 | 0.00 | 0.00 | 0.00 | 92 | 1010.7 |
| 20260501234503 | 50 | 0 | 0.0 | 0.0 | 0.00 | 0.00 | 0.00 | 92 | 1010.7 |
| 20260501233603 | 50 | 0 | 0.0 | 0.0 | 0.00 | 0.00 | 0.00 | 91 | 1010.7 |
| 20260501232703 | 50 | 0 | 0.0 | 0.0 | 0.00 | 0.00 | 0.00 | 91 | 1010.8 |
| 20260501231803 | 50 | 0 | 0.0 | 0.0 | 0.00 | 0.00 | 0.00 | 91 | 1011.0 |
| 20260501230903 | 51 | 0 | 0.0 | 0.0 | 0.00 | 0.00 | 0.00 | 91 | 1011.0 |
| 20260501230004 | 51 | 0 | 0.0 | 0.0 | 0.00 | 0.00 | 0.00 | 91 | 1011.3 |
| 20260501225403 | 52 | 0 | 0.0 | 0.0 | 0.00 | 0.00 | 0.00 | 91 | 1011.0 |
| 20260501224714 | 52 | 0 | 0.0 | 0.0 | 0.00 | 0.00 | 0.00 | 91 | 1011.2 |
| 20260501223603 | 52 | 0 | 0.0 | 0.0 | 0.00 | 0.00 | 0.00 | 92 | 1011.2 |
| 20260501222913 | 53 | 225 | 0.9 | 1.7 | 0.00 | 0.00 | 0.00 | 92 | 1011.5 |
| 20260501221803 | 53 | 193 | 1.7 | 3.5 | 0.00 | 0.00 | 0.00 | 92 | 1011.5 |
| 20260501220903 | 53 | 202 | 1.7 | 2.6 | 0.00 | 0.00 | 0.00 | 91 | 1011.4 |
| 20260501220003 | 53 | 192 | 1.7 | 2.6 | 0.00 | 0.00 | 0.00 | 91 | 1011.5 |
| 20260501215403 | 53 | 192 | 1.7 | 1.7 | 0.00 | 0.00 | 0.00 | 90 | 1011.4 |
| 20260501214503 | 53 | 182 | 0.0 | 1.7 | 0.00 | 0.00 | 0.00 | 89 | 1011.5 |
| 20260501213603 | 53 | 0 | 0.0 | 0.0 | 0.00 | 0.00 | 0.00 | 88 | 1011.2 |
| 20260501212703 | 53 | 0 | 0.0 | 0.0 | 0.00 | 0.00 | 0.00 | 88 | 1011.2 |
| 20260501211803 | 54 | 0 | 0.0 | 0.0 | 0.00 | 0.00 | 0.00 | 88 | 1011.3 |
| 20260501211113 | 54 | 0 | 0.0 | 0.0 | 0.00 | 0.00 | 0.00 | 88 | 1011.4 |
| 20260501210003 | 54 | 135 | 0.0 | 0.9 | 0.00 | 0.00 | 0.00 | 88 | 1011.2 |
| 20260501205403 | 54 | 135 | 0.0 | 0.9 | 0.00 | 0.00 | 0.00 | 88 | 1011.3 |
| 20260501204503 | 54 | 70 | 0.0 | 1.7 | 0.00 | 0.00 | 0.00 | 87 | 1011.1 |
| 20260501203603 | 54 | 85 | 0.0 | 0.9 | 0.00 | 0.00 | 0.00 | 87 | 1010.9 |
| 20260501202703 | 54 | 69 | 0.9 | 1.7 | 0.00 | 0.00 | 0.00 | 83 | 1011.2 |
| 20260501201803 | 54 | 81 | 0.9 | 1.7 | 0.00 | 0.00 | 0.00 | 83 | 1010.9 |
| 20260501201112 | 55 | 90 | 1.7 | 1.7 | 0.00 | 0.00 | 0.00 | 83 | 1010.9 |
| 20260501200003 | 55 | 90 | 0.9 | 1.7 | 0.00 | 0.00 | 0.00 | 82 | 1010.8 |
| 20260501195403 | 55 | 90 | 0.9 | 1.7 | 0.00 | 0.00 | 0.00 | 81 | 1010.9 |
| 20260501194503 | 55 | 92 | 0.9 | 1.7 | 0.00 | 0.00 | 0.00 | 81 | 1010.8 |
| 20260501193603 | 56 | 87 | 0.9 | 1.7 | 0.00 | 0.00 | 0.00 | 80 | 1010.8 |
| 20260501192703 | 56 | 71 | 0.9 | 1.7 | 0.00 | 0.00 | 0.00 | 79 | 1010.9 |
| 20260501191803 | 56 | 170 | 0.9 | 1.7 | 0.00 | 0.00 | 0.00 | 78 | 1010.8 |
| 20260501190903 | 57 | 197 | 1.7 | 2.6 | 0.00 | 0.00 | 0.00 | 77 | 1010.7 |
| 20260501190003 | 57 | 203 | 1.7 | 3.5 | 0.00 | 0.00 | 0.00 | 76 | 1010.7 |
| 20260501185403 | 57 | 208 | 0.9 | 3.5 | 0.00 | 0.00 | 0.00 | 75 | 1010.3 |
| 20260501184712 | 58 | 210 | 1.7 | 3.5 | 0.00 | 0.00 | 0.00 | 75 | 1010.4 |
| 20260501183603 | 58 | 154 | 1.7 | 3.5 | 0.00 | 0.00 | 0.00 | 74 | 1010.2 |
| 20260501182703 | 58 | 39 | 1.7 | 3.5 | 0.00 | 0.00 | 0.00 | 73 | 1010.4 |
| 20260501181803 | 58 | 132 | 1.7 | 3.5 | 0.00 | 0.00 | 0.00 | 73 | 1010.5 |
| 20260501180903 | 58 | 197 | 3.5 | 7.0 | 0.00 | 0.00 | 0.00 | 72 | 1010.6 |
| 20260501180004 | 58 | 205 | 4.3 | 6.1 | 0.00 | 0.00 | 0.00 | 72 | 1010.4 |